Home   Weather   Huntington Beach   Past weeks

Flag for USA Past Weather in Huntington Beach, California, USA — Yesterday and Last 2 Weeks

Now
64 °F

Broken clouds.


Feels Like: 64 °F
Forecast: 61 / 72 °F
Wind: 5 mph from North

Location: John Wayne Airport-Orange County Airport

Current Time: Apr 25, 2017 at 9:46:27 am

Latest Report: Apr 25, 2017 at 8:53 am


Visibility: 10 mi

Pressure: 29.89 "Hg

Humidity: 70%

Dew Point: 54 °F

Location of Huntington BeachLocation

Past Weather in Huntington Beach — Graph

°F

Huntington Beach Temperature Yesterday

Maximum temperature yesterday: 70 °F (at 12:53 pm)
Minimum temperature yesterday: 61 °F (at 12:03 am)
Average temperature yesterday: 65 °F

High & Low Weather Summary for the Past Weeks

 TemperatureHumidityPressure
High84 °F (Apr 22, 1:53 pm)97% (Apr 18, 11:07 pm)30.14 "Hg (Apr 18, 11:07 pm)
Low52 °F (Apr 15, 5:53 am)23% (Apr 21, 8:53 pm)29.81 "Hg (Apr 21, 6:53 pm)
Average65 °F68%29.99 "Hg
* Reported Apr 10 7:53 am — Apr 25 7:53 am, Huntington Beach, Weather by CustomWeather, © 2017

Note: Actual official high and low records may vary slightly from our data, if they occured in-between our weather recording intervals... More about our weather records

Advertising

Huntington Beach Weather History for the Previous 24 Hours

Scroll right to see more
 ConditionsComfort  
Time TempWeatherWind HumidityBarometerVisibility
7:53 am
Tue, Apr 25
62 °FBroken clouds.7 mph80%29.88 "Hg10 mi
6:53 am60 °FPartly sunny.7 mph86%29.85 "Hg9 mi
5:53 am59 °FPassing clouds.5 mph87%29.83 "Hg10 mi
4:53 am60 °FClear.7 mph83%29.83 "Hg10 mi
4:23 am60 °FPassing clouds.8 mph83%29.83 "Hg10 mi
3:53 am60 °FPassing clouds.7 mph86%29.84 "Hg10 mi
3:28 am60 °FPassing clouds.7 mph86%29.84 "Hg10 mi
2:53 am60 °FPassing clouds.5 mph86%29.84 "Hg10 mi
1:53 am61 °FClear.5 mph83%29.87 "Hg10 mi
12:53 am61 °FPassing clouds.6 mph83%29.86 "Hg10 mi
11:53 pm
Mon, Apr 24
64 °FPassing clouds.8 mph75%29.86 "Hg10 mi
10:53 pm62 °FPassing clouds.8 mph78%29.87 "Hg10 mi
9:53 pm62 °FPassing clouds.7 mph78%29.88 "Hg10 mi
8:53 pm62 °FPassing clouds.5 mph78%29.88 "Hg10 mi
7:53 pm63 °FPassing clouds.6 mph75%29.88 "Hg10 mi
6:53 pm65 °FPartly sunny.5 mph68%29.87 "Hg10 mi
5:53 pm66 °FBroken clouds.7 mph68%29.88 "Hg10 mi
4:53 pm69 °FBroken clouds.10 mph61%29.87 "Hg10 mi
3:53 pm69 °FBroken clouds.10 mph61%29.89 "Hg10 mi
2:53 pm70 °FScattered clouds.13 mph57%29.91 "Hg10 mi
1:53 pm69 °FBroken clouds.12 mph59%29.93 "Hg10 mi
12:53 pm70 °FBroken clouds.12 mph55%29.94 "Hg10 mi
12:09 pm67 °FBroken clouds.14 mph66%29.95 "Hg10 mi
12:00 pm68 °FMostly cloudy.13 mph63%29.95 "Hg10 mi
10:53 am67 °FBroken clouds.10 mph66%29.95 "Hg10 mi
9:53 am66 °FPartly sunny.9 mph65%29.95 "Hg10 mi
Weather by CustomWeather, © 2017

See weather overviewHow to use our weather pages